ATLAS D DEB, 2337

Orbit data source: Space-Track

ATLAS D DEB, 2337 is space debris in LEO originally from a launch on Thu, 14 Jul 1966 UTC launched from the Air Force Western Test Range (AFWTR). Debris objects in space refer to the collection of defunct objects orbiting the Earth. Examples of debris include non-operational satellites, rocket bodies, and fragments generated from explosions, collisions, or faulty payload assembly.

Loading next visibility...
Identifier
2337, 1966-063E
Orbit
LEO
Country
Flag of USUS
Related business
Manufacturer
Unknown
Mission
Spacecraft
Bus & Motor
Unknown
Mass
9 kg wet, 9 kg dry
Launch date (UTC)
1966-07-14 (60 years ago)
Launch vehicle
Unknown
Launch site
Air Force Western Test Range (AFWTR)
Object type
Payload
Rocket body
Debris
Shape & HBR
Unknown
Radar Cross Section
Medium (>0.1 m² and <1 m²)

Expand to show TLE details & history
Last TLE update: 18 hours ago

TLE from 18 hours ago
0 ATLAS D DEB
1 02337U 66063E   26119.38751506  .00000369  00000-0  13028-3 0  9995
2 02337 144.2342 310.9134 0005123  42.2908  10.5229 13.72286964995363
Epoch: 2026-04-29T09:18Z
TLE epoch observation values (Epoch: 2026-04-29T09:18:01.301Z)
Latitude
27.86532°
Longitude
-92.8418°
Altitude
987.236 km
Speed
7.364 km/s
True Right ascension
17h 36m 03s
True Declination
27° 43' 40"
Sunlit
Object was in daylight at epoch
Visualization orbit readout
Latitude
Unknown
Longitude
Unknown
Altitude
Unknown
Speed
Unknown
Apparent Right ascension
Unknown
Apparent Declination
Unknown
Sunlit
N/A
Visualization observer readout
Local Sidereal Time
10:45:39
Azimuth
Unknown
Elevation
Unknown
Doppler factor
Unknown
Orbital elements
Apogee altitude
998.068 km
Perigee altitude
990.514 km
Semi-major axis
7,372.428 km
Eccentricity
0.00051
Inclination
144.2342°
RAAN
310.9134°
Arg. of periapsis
42.2908°
True anomaly
10.53363°
Mean anomaly
10.5229°
Eccentric anomaly
10.52826°
Mean motion
3.42868 °/min
Orbital period
105 mins
BSTAR
0.00013028
Loading maneuver chart data...
Computing Atmospheric mass density...
Loading historical data...
Loading historical data...
Loading historical data...
Loading historical data...
Loading historical data...
Loading historical data...
Loading historical data...

Documentation

Showing up to 5 results
|